When you browse on this site, cookies collect data to enhance your experience and personalize the content and advertising you see.
Visit our Privacy Policy to learn more. By continuing to use the site, you agree to this use of cookies and data.
  • în România
  • Lista ţărilor
  • Pe 7 zile
  • Temperatura apei
  • Hartă satelitară
  • Meteo pe hartă
  • Widget-uri
  • user-avatar
    Intrare

    Meteo pe oră la Polyanskoe

    Astăzi, 17 Iulie, Miercuri

    Timp Temperatura Precipitaţii Vânt Presiune Umiditate
    00:00 +15°C° 0.7 mm 4 m/s 737 mmHg 97%
    01:00 +15°C° 0.2 mm 4 m/s 737 mmHg 97%
    02:00 +17°C° 0.2 mm 4 m/s 736 mmHg 97%
    03:00 +17°C° 0 mm 4 m/s 736 mmHg 97%
    04:00 +17°C° 0.1 mm 4 m/s 736 mmHg 96%
    05:00 +17°C° 0.1 mm 4 m/s 736 mmHg 95%
    06:00 +18°C° 0.1 mm 4 m/s 735 mmHg 94%
    07:00 +19°C° 0.6 mm 5 m/s 735 mmHg 88%
    08:00 +21°C° 0.6 mm 5 m/s 735 mmHg 82%
    09:00 +22°C° 0.6 mm 6 m/s 734 mmHg 76%
    10:00 +23°C° 2 mm 6 m/s 734 mmHg 74%
    11:00 +23°C° 2 mm 6 m/s 734 mmHg 73%
    12:00 +24°C° 2 mm 7 m/s 734 mmHg 71%
    13:00 +24°C° 2.1 mm 6 m/s 733 mmHg 71%
    14:00 +24°C° 2.1 mm 6 m/s 733 mmHg 71%
    15:00 +25°C° 2.1 mm 5 m/s 733 mmHg 71%
    16:00 +25°C° 0.6 mm 4 m/s 733 mmHg 74%
    17:00 +23°C° 0.6 mm 4 m/s 733 mmHg 77%
    18:00 +24°C° 0.6 mm 3 m/s 733 mmHg 79%
    19:00 +22°C° 0.2 mm 3 m/s 733 mmHg 84%
    20:00 +20°C° 0.2 mm 2 m/s 733 mmHg 88%
    21:00 +19°C° 0.2 mm 2 m/s 733 mmHg 92%
    22:00 +18°C° 0 mm 3 m/s 733 mmHg 93%
    23:00 +18°C° 0 mm 3 m/s 733 mmHg 94%

    Mâine, 18 Iulie, Joi

    Timp Temperatura Precipitaţii Vânt Presiune Umiditate
    00:00 +17°C° 0 mm 3 m/s 733 mmHg 96%
    01:00 +17°C° 0 mm 3 m/s 734 mmHg 96%
    02:00 +16°C° 0 mm 3 m/s 734 mmHg 96%
    03:00 +16°C° 0 mm 3 m/s 734 mmHg 96%
    04:00 +16°C° 0 mm 3 m/s 734 mmHg 95%
    05:00 +17°C° 0 mm 3 m/s 734 mmHg 94%
    06:00 +17°C° 0 mm 3 m/s 735 mmHg 93%
    07:00 +19°C° 0 mm 3 m/s 735 mmHg 87%
    08:00 +20°C° 0 mm 3 m/s 735 mmHg 80%
    09:00 +22°C° 0 mm 3 m/s 736 mmHg 74%
    10:00 +24°C° 0 mm 3 m/s 736 mmHg 69%
    11:00 +25°C° 0 mm 3 m/s 736 mmHg 63%
    12:00 +26°C° 0 mm 3 m/s 736 mmHg 58%
    13:00 +26°C° 0 mm 3 m/s 736 mmHg 58%
    14:00 +26°C° 0 mm 3 m/s 736 mmHg 57%
    15:00 +27°C° 0 mm 3 m/s 736 mmHg 57%
    16:00 +26°C° 0 mm 3 m/s 736 mmHg 60%
    17:00 +26°C° 0 mm 3 m/s 736 mmHg 64%
    18:00 +25°C° 0 mm 2 m/s 737 mmHg 67%
    19:00 +24°C° 0 mm 2 m/s 737 mmHg 70%
    20:00 +21°C° 0 mm 2 m/s 737 mmHg 73%
    21:00 +20°C° 0 mm 1 m/s 737 mmHg 75%
    22:00 +19°C° 0 mm 1 m/s 737 mmHg 77%
    23:00 +18°C° 0 mm 2 m/s 737 mmHg 79%

    Poimâine, 19 Iulie, Vineri

    Timp Temperatura Precipitaţii Vânt Presiune Umiditate
    00:00 +17°C° 0 mm 2 m/s 738 mmHg 82%
    01:00 +18°C° 0 mm 1 m/s 738 mmHg 83%
    02:00 +18°C° 0 mm 1 m/s 738 mmHg 84%
    03:00 +16°C° 0 mm 0 m/s 738 mmHg 86%
    04:00 +18°C° 0 mm 1 m/s 738 mmHg 84%
    05:00 +19°C° 0 mm 1 m/s 738 mmHg 82%
    06:00 +20°C° 0 mm 1 m/s 738 mmHg 80%
    07:00 +21°C° 0 mm 1 m/s 739 mmHg 75%
    08:00 +23°C° 0 mm 2 m/s 739 mmHg 70%
    09:00 +24°C° 0 mm 2 m/s 739 mmHg 65%
    10:00 +25°C° 0 mm 3 m/s 739 mmHg 60%
    11:00 +26°C° 0 mm 3 m/s 739 mmHg 56%
    12:00 +27°C° 0 mm 3 m/s 740 mmHg 51%
    13:00 +27°C° 0 mm 3 m/s 739 mmHg 53%
    14:00 +26°C° 0 mm 3 m/s 739 mmHg 54%
    15:00 +26°C° 0 mm 4 m/s 739 mmHg 55%
    16:00 +26°C° 0.1 mm 3 m/s 739 mmHg 59%
    17:00 +26°C° 0.1 mm 2 m/s 739 mmHg 63%
    18:00 +25°C° 0.1 mm 2 m/s 739 mmHg 68%
    19:00 +23°C° 0 mm 2 m/s 740 mmHg 71%
    20:00 +22°C° 0 mm 1 m/s 740 mmHg 74%
    21:00 +20°C° 0 mm 1 m/s 740 mmHg 77%
    22:00 +19°C° 0 mm 1 m/s 740 mmHg 78%
    23:00 +19°C° 0 mm 1 m/s 740 mmHg 79%

    20 Iulie, Sâmbătă

    Timp Temperatura Precipitaţii Vânt Presiune Umiditate
    00:00 +18°C° 0 mm 1 m/s 740 mmHg 80%
    01:00 +18°C° 0 mm 1 m/s 740 mmHg 82%
    02:00 +16°C° 0 mm 1 m/s 740 mmHg 84%
    03:00 +16°C° 0 mm 1 m/s 740 mmHg 86%
    04:00 +16°C° 0 mm 1 m/s 740 mmHg 85%
    05:00 +17°C° 0 mm 2 m/s 741 mmHg 85%
    06:00 +18°C° 0 mm 2 m/s 741 mmHg 84%
    07:00 +19°C° 0 mm 2 m/s 741 mmHg 79%
    08:00 +21°C° 0 mm 3 m/s 741 mmHg 74%
    09:00 +22°C° 0 mm 4 m/s 741 mmHg 69%
    10:00 +23°C° 0 mm 4 m/s 742 mmHg 66%
    11:00 +25°C° 0 mm 4 m/s 742 mmHg 63%
    12:00 +26°C° 0 mm 5 m/s 742 mmHg 60%
    13:00 +26°C° 0 mm 5 m/s 742 mmHg 58%
    14:00 +26°C° 0 mm 5 m/s 742 mmHg 56%
    15:00 +26°C° 0 mm 5 m/s 742 mmHg 54%
    16:00 +26°C° 0 mm 4 m/s 742 mmHg 58%
    17:00 +25°C° 0 mm 3 m/s 742 mmHg 62%
    18:00 +25°C° 0 mm 3 m/s 742 mmHg 66%
    19:00 +23°C° 0 mm 2 m/s 742 mmHg 70%
    20:00 +20°C° 0 mm 2 m/s 742 mmHg 74%
    21:00 +18°C° 0 mm 2 m/s 742 mmHg 78%
    22:00 +18°C° 0 mm 2 m/s 743 mmHg 80%
    23:00 +17°C° 0 mm 2 m/s 743 mmHg 82%

    21 Iulie, Duminică

    Timp Temperatura Precipitaţii Vânt Presiune Umiditate
    00:00 +17°C° 0 mm 2 m/s 743 mmHg 84%
    01:00 +16°C° 0 mm 2 m/s 743 mmHg 85%
    02:00 +16°C° 0 mm 2 m/s 742 mmHg 86%
    03:00 +16°C° 0 mm 2 m/s 742 mmHg 86%
    04:00 +16°C° 0 mm 2 m/s 742 mmHg 85%
    05:00 +17°C° 0 mm 2 m/s 742 mmHg 84%
    06:00 +18°C° 0 mm 2 m/s 742 mmHg 83%
    07:00 +19°C° 0 mm 3 m/s 742 mmHg 77%
    08:00 +21°C° 0 mm 3 m/s 742 mmHg 72%
    09:00 +24°C° 0 mm 3 m/s 742 mmHg 66%
    10:00 +25°C° 0 mm 4 m/s 742 mmHg 63%
    11:00 +25°C° 0 mm 4 m/s 742 mmHg 59%
    12:00 +26°C° 0 mm 4 m/s 742 mmHg 56%
    13:00 +26°C° 0.1 mm 4 m/s 742 mmHg 56%
    14:00 +26°C° 0.1 mm 4 m/s 742 mmHg 55%
    15:00 +26°C° 0.1 mm 4 m/s 741 mmHg 55%
    16:00 +26°C° 0.1 mm 4 m/s 741 mmHg 59%
    17:00 +25°C° 0.1 mm 4 m/s 741 mmHg 63%
    18:00 +25°C° 0.1 mm 3 m/s 741 mmHg 68%
    19:00 +22°C° 0 mm 3 m/s 741 mmHg 72%
    20:00 +20°C° 0 mm 3 m/s 741 mmHg 76%
    21:00 +19°C° 0 mm 2 m/s 741 mmHg 80%
    22:00 +18°C° 0 mm 2 m/s 741 mmHg 82%
    23:00 +18°C° 0 mm 2 m/s 741 mmHg 84%

    22 Iulie, Luni

    Timp Temperatura Precipitaţii Vânt Presiune Umiditate
    00:00 +17°C° 0 mm 2 m/s 740 mmHg 86%
    01:00 +16°C° 0 mm 2 m/s 740 mmHg 88%
    02:00 +16°C° 0 mm 3 m/s 740 mmHg 90%
    03:00 +16°C° 0 mm 3 m/s 740 mmHg 92%
    04:00 +16°C° 0 mm 3 m/s 740 mmHg 90%
    05:00 +17°C° 0 mm 3 m/s 740 mmHg 89%
    06:00 +17°C° 0 mm 4 m/s 740 mmHg 87%
    07:00 +19°C° 0 mm 4 m/s 740 mmHg 81%
    08:00 +20°C° 0 mm 5 m/s 740 mmHg 75%
    09:00 +22°C° 0 mm 5 m/s 740 mmHg 68%
    10:00 +23°C° 0 mm 5 m/s 740 mmHg 65%
    11:00 +25°C° 0 mm 5 m/s 740 mmHg 63%
    12:00 +25°C° 0 mm 5 m/s 740 mmHg 60%
    13:00 +25°C° 0.4 mm 5 m/s 740 mmHg 60%
    14:00 +25°C° 0.4 mm 5 m/s 739 mmHg 61%
    15:00 +25°C° 0.4 mm 5 m/s 739 mmHg 61%
    16:00 +25°C° 0.1 mm 5 m/s 739 mmHg 64%
    17:00 +23°C° 0.1 mm 4 m/s 739 mmHg 66%
    18:00 +23°C° 0.1 mm 4 m/s 739 mmHg 69%
    19:00 +21°C° 0 mm 3 m/s 739 mmHg 75%
    20:00 +19°C° 0 mm 3 m/s 739 mmHg 81%
    21:00 +18°C° 0 mm 3 m/s 739 mmHg 87%
    22:00 +17°C° 0 mm 3 m/s 739 mmHg 89%
    23:00 +16°C° 0 mm 3 m/s 739 mmHg 90%
    Arată mai mult